User: anonymous   Login
Location: Sungai Liu
(2.3667°N, 113.8667°E)
Time: 13:35:38
(UTC+00:00)
Language:

BREEZE-M R/B - Orbit

View from above orbital plane
View from above orbital plane
View from above satellite
View from above satellite

Ground track
Ground track

The orbit data is extracted from the following two-line orbital elements,

1 38344U 12026C   22227.30329051  .00002921  00000-0  79444-3 0  9996
2 38344  49.1502 269.6571 6292361  28.1022 354.9404  3.60026625130097
Epoch (UTC): 15 August 2022 07:16:44
Eccentricity: 0.6292361
inclination: 49.1502°
perigee height: 289 km
apogee height: 22919 km
right ascension of ascending node: 269.6571°
argument of perigee: 28.1022°
revolutions per day: 3.60026625
mean anomaly at epoch: 354.9404°
orbit number at epoch: 13009

The dashed part of the orbit path shows where the satellite is in the earth's shadow,  

DLR